GW1682 Weather Reports


Display with metric or nautical units.
time (UTC)temp
F
wind
direction
speed
MPH
gust
MPH
rain 1hr
in
rain 24hr
in
rain mn
in
humidity
%
barometer
mb
20260508063404 67 217 1.0 4.0 0.00 0.00 0.00 39 1018.8
20260508061905 68 219 2.0 4.0 0.00 0.00 0.00 38 1018.7
20260508060408 68 204 1.0 5.0 0.00 0.00 0.00 37 1018.3
20260508054905 68 252 0.0 2.0 0.00 0.00 0.00 40 1017.5
20260508053403 67 262 0.0 0.0 0.00 0.00 0.00 43 1017.2
20260508051903 67 271 0.0 0.0 0.00 0.00 0.00 45 1016.8
20260508050402 66 190 0.0 0.0 0.00 0.00 0.00 49 1016.6
20260508044855 66 190 0.0 2.0 0.00 0.00 0.00 47 1016.7
20260508043356 66 182 0.0 2.0 0.00 0.00 0.00 51 1016.8
20260508041857 65 120 0.0 2.0 0.00 0.00 0.00 53 1016.3
20260508040408 65 333 0.0 2.0 0.00 0.00 0.00 51 1016.1
20260508034902 65 0 0.0 0.0 0.00 0.00 0.00 52 1015.7
20260508033400 65 0 0.0 0.0 0.00 0.00 0.00 53 1015.7
20260508031901 65 0 0.0 2.0 0.00 0.00 0.00 52 1015.7
20260508030359 65 54 0.0 3.0 0.00 0.00 0.00 55 1015.7
20260508024855 65 351 1.0 2.0 0.00 0.00 0.00 54 1015.7
20260508023359 65 357 1.0 3.0 0.00 0.00 0.00 57 1015.9
20260508021901 65 316 0.0 2.0 0.00 0.00 0.00 57 1015.9
20260508020359 66 316 1.0 3.0 0.00 0.00 0.00 46 1016.0
20260508014859 67 264 2.0 4.0 0.00 0.00 0.00 40 1015.8
20260508013359 67 233 1.0 3.0 0.00 0.00 0.00 42 1016.1
20260508011905 65 226 0.0 0.0 0.00 0.00 0.00 53 1016.3
20260508010357 65 14 0.0 0.0 0.00 0.00 0.00 56 1016.5
20260508004905 65 0 0.0 0.0 0.00 0.00 0.00 54 1016.7
20260508003358 65 0 0.0 0.0 0.00 0.00 0.00 53 1016.5
20260508001925 65 350 0.0 0.0 0.00 0.00 0.00 53 1016.6
20260508000357 65 0 0.0 0.0 0.00 0.00 0.00 53 1016.6
20260507234916 65 298 0.0 2.0 0.00 0.00 0.00 52 1016.8
20260507233352 65 0 0.0 2.0 0.00 0.00 0.00 51 1017.1
20260507231904 65 343 0.0 0.0 0.00 0.00 0.00 51 1017.3
20260507230355 66 13 0.0 0.0 0.00 0.00 0.00 51 1017.1
20260507224859 66 0 0.0 2.0 0.00 0.00 0.00 50 1017.4
20260507223354 66 348 0.0 2.0 0.00 0.00 0.00 48 1017.4
20260507221850 66 338 2.0 3.0 0.00 0.00 0.00 49 1017.5
20260507220418 67 171 0.0 2.0 0.00 0.00 0.00 52 1017.6
20260507214851 67 243 0.0 2.0 0.00 0.00 0.00 50 1018.0
20260507213346 67 255 0.0 2.0 0.00 0.00 0.00 48 1018.0
20260507211847 67 258 0.0 2.0 0.00 0.00 0.00 47 1018.0
20260507210355 67 237 0.0 6.0 0.00 0.00 0.00 45 1018.1
20260507204852 68 209 2.0 5.0 0.00 0.00 0.00 40 1017.9
20260507203352 68 235 1.0 4.0 0.00 0.00 0.00 40 1018.2
20260507200358 68 0 0.0 2.0 0.00 0.00 0.00 48 1018.0
20260507194855 68 330 0.0 4.0 0.00 0.00 0.00 48 1018.1
20260507193350 68 293 1.0 3.0 0.00 0.00 0.00 48 1017.9
20260507191849 69 326 1.0 2.0 0.00 0.00 0.00 45 1017.6
20260507190354 69 27 0.0 5.0 0.00 0.00 0.00 40 1017.5
20260507184849 69 202 2.0 4.0 0.00 0.00 0.00 37 1017.8
20260507183349 69 235 2.0 4.0 0.00 0.00 0.00 36 1017.5
20260507181846 70 221 1.0 3.0 0.00 0.00 0.00 40 1017.6
20260507180347 70 254 0.0 2.0 0.00 0.00 0.00 41 1017.5
20260507174846 70 171 1.0 4.0 0.00 0.00 0.00 40 1017.4
20260507171846 71 159 1.0 5.0 0.00 0.00 0.00 37 1017.5
20260507170346 72 157 1.0 5.0 0.00 0.00 0.00 33 1017.0
20260507164849 72 209 2.0 4.0 0.00 0.00 0.00 34 1016.8
20260507163346 72 209 2.0 4.0 0.00 0.00 0.00 35 1016.8
20260507161845 73 228 1.0 4.0 0.00 0.00 0.00 36 1017.1
20260507160345 73 316 0.0 6.0 0.00 0.00 0.00 34 1017.0
20260507154849 73 195 2.0 7.0 0.00 0.00 0.00 33 1017.1
20260507153344 73 166 3.0 10.0 0.00 0.00 0.00 33 1017.2
20260507151847 74 240 2.0 7.0 0.00 0.00 0.00 33 1017.5
20260507150347 74 149 2.0 7.0 0.00 0.00 0.00 34 1017.4
20260507144849 73 269 5.0 9.0 0.00 0.00 0.00 35 1017.3
20260507143344 74 216 3.0 10.0 0.00 0.00 0.00 35 1017.4
20260507141844 74 207 4.0 10.0 0.00 0.00 0.00 33 1017.3
20260507134843 76 231 3.0 13.0 0.00 0.00 0.00 31 1016.9
20260507133340 76 214 4.0 10.0 0.00 0.00 0.00 31 1016.7
20260507131839 76 166 3.0 9.0 0.00 0.00 0.00 31 1016.7
20260507130340 76 203 2.0 7.0 0.00 0.00 0.00 32 1017.0
20260507124840 75 241 2.0 7.0 0.00 0.00 0.00 34 1017.1
20260507121832 75 173 3.0 9.0 0.00 0.00 0.00 38 1017.4
20260507120333 77 272 2.0 7.0 0.00 0.00 0.00 35 1017.4
20260507113332 76 190 2.0 7.0 0.00 0.00 0.00 51 1017.5
20260507111835 75 237 2.0 11.0 0.00 0.00 0.00 51 1017.8
20260507110331 75 219 3.0 7.0 0.00 0.00 0.00 51 1017.5
20260507104836 76 243 3.0 9.0 0.00 0.00 0.00 43 1017.8
20260507101833 76 238 3.0 9.0 0.00 0.00 0.00 41 1017.0
20260507100335 74 200 1.0 7.0 0.00 0.00 0.00 64 1017.2
20260507094836 73 264 2.0 7.0 0.00 0.00 0.00 66 1017.3
20260507093335 73 196 2.0 7.0 0.00 0.00 0.00 63 1017.3
20260507090334 72 272 1.0 4.0 0.00 0.00 0.00 63 1017.2
20260507084843 72 250 1.0 5.0 0.00 0.00 0.00 62 1017.3
20260507083337 72 250 1.0 5.0 0.00 0.00 0.00 59 1017.2
20260507081838 71 155 1.0 5.0 0.00 0.00 0.00 61 1017.1
20260507080336 71 235 1.0 4.0 0.00 0.00 0.00 58 1017.2
20260507074837 71 221 2.0 4.0 0.00 0.00 0.00 56 1017.1
20260507073337 70 144 1.0 5.0 0.00 0.00 0.00 54 1016.8
20260507071836 70 262 2.0 4.0 0.00 0.00 0.00 55 1016.8
20260507064834 69 221 2.0 9.0 0.00 0.00 0.00 57 1017.1